Wind_Speed
20 18 18 16 11 12 22 22 17 13 12 10 8 13 12 10 6 11 11 12 9 7 9 9 12 13 14 15 14 14 13 12 12 9 8 8 9 10 10 11 11 11 12 11 11 12 13 15 14
18 21 15 13 11 17 21 21 8 11 13 9 13 13 14 11 9 12 11 9 7 7 9 10 11 12 12 13 12 12 12 11 10 9 9 7 7 7 8 10 10 10 11 11 13 14 16 17 18
20 18 13 12 14 16 19 22 8 12 10 11 11 13 11 9 11 12 10 8 8 9 10 11 10 11 9 9 9 10 9 8 9 8 8 7 6 5 6 7 7 8 9 11 12 14 16 17 18
22 14 14 7 10 15 20 20 15 13 10 14 10 12 12 9 10 10 10 9 8 10 10 11 10 10 9 7 7 7 8 7 6 6 6 5 5 5 5 7 7 8 8 9 11 12 14 15 15
12 16 13 8 15 18 18 15 16 12 10 10 10 10 10 9 10 9 10 8 8 9 10 11 11 11 9 7 5 6 6 7 7 6 5 5 4 4 5 6 7 8 8 9 9 10 11 12 13
14 14 11 10 16 15 15 16 12 12 10 12 8 9 7 8 9 7 7 7 8 8 8 8 10 11 9 8 6 5 5 5 5 6 7 6 4 3 4 5 6 7 7 8 9 9 9 10 11
6 10 7 8 7 15 15 11 10 11 12 11 12 10 9 9 6 6 6 6 7 7 8 8 10 12 11 10 8 6 5 4 5 6 7 7 7 8 7 7 7 7 7 8 8 8 9 11 11
11 5 3 5 10 14 7 8 8 11 10 8 12 14 15 14 11 12 9 9 9 9 9 9 10 11 10 9 7 5 5 4 5 5 5 5 4 6 5 5 5 6 6 6 7 8 8 9 10
9 4 5 23 13 9 7 8 7 5 4 9 13 13 14 15 13 13 14 12 12 10 8 8 8 9 8 7 6 5 3 2 3 3 3 3 4 7 5 4 3 5 7 8 8 8 10 9 10
9 1 10 25 18 9 5 4 10 7 4 10 10 12 14 13 13 11 10 9 9 9 9 9 8 8 7 6 4 4 2 2 3 3 3 3 5 4 5 6 7 8 8 8 10 11 12 12 11
17 10 6 17 15 8 3 3 5 7 4 8 8 9 8 10 13 11 10 9 8 9 10 9 8 7 7 6 4 3 1 3 4 2 3 6 6 6 5 8 8 8 9 11 12 13 14 16 16
21 17 8 14 16 11 3 8 6 1 2 4 6 3 4 7 6 8 8 8 9 7 9 8 8 6 6 5 3 1 2 5 5 4 5 6 5 4 7 9 11 11 12 13 14 14 15 14 15
22 22 17 13 17 9 13 15 9 5 5 4 3 2 3 5 8 4 4 5 5 6 7 8 7 6 7 6 1 1 1 4 5 4 5 4 6 8 8 8 9 10 10 11 13 15 17 19 18
27 24 21 19 10 13 10 17 13 8 4 10 6 7 7 7 8 7 6 4 4 3 4 6 6 7 6 5 2 4 6 6 5 6 6 6 5 5 6 7 7 8 10 10 12 14 18 20 22
18 26 25 22 13 14 16 20 15 13 11 8 11 12 12 8 6 7 6 7 7 4 5 7 8 8 8 6 6 8 7 5 5 5 6 8 10 10 11 10 9 10 10 13 16 18 20 23 22
14 12 17 22 19 17 22 19 18 12 8 6 8 14 11 6 6 6 6 6 6 4 4 4 7 7 7 6 4 4 4 3 3 5 8 9 10 12 14 14 15 16 18 17 19 22 24 27 29
13 9 10 19 16 17 24 21 19 19 14 6 13 11 10 6 7 7 4 3 2 4 4 4 3 4 5 5 3 4 6 7 9 11 12 13 16 17 18 19 21 22 22 25 25 23 26 29 32
15 17 14 14 18 18 24 21 22 20 14 12 12 14 10 9 9 11 6 4 3 2 3 4 3 4 4 4 5 6 8 10 12 14 15 16 16 19 21 23 25 27 26 29 32 29 31 31 30
24 20 18 20 23 26 20 17 15 13 20 14 16 12 8 13 15 13 13 7 8 8 7 5 7 7 8 10 11 12 14 15 16 19 21 22 22 24 24 25 28 32 34 36 38 35 32 33 36
31 27 19 21 22 24 17 16 13 19 24 25 19 13 15 17 17 16 17 14 13 12 12 13 12 13 13 14 15 17 19 22 22 25 29 31 32 33 32 32 33 36 38 40 42 43 39 38 37
34 33 25 21 28 26 21 24 25 27 32 30 26 24 21 20 22 18 16 18 19 17 18 19 18 18 17 20 22 23 23 25 26 30 33 35 37 37 39 40 39 42 42 43 42 41 42 41 40
35 29 28 28 32 29 26 27 30 31 30 31 34 33 31 21 25 24 20 20 18 21 22 23 22 23 25 24 26 28 28 30 33 34 37 38 38 40 42 42 42 41 39 40 41 43 44 46 49
33 29 31 36 39 33 30 31 32 34 33 37 36 37 39 34 32 26 25 27 21 22 24 27 27 27 29 31 32 33 33 35 37 41 42 41 43 42 41 38 38 40 42 42 44 47 49 52 53
34 35 38 42 43 42 35 38 38 37 33 35 42 39 37 40 36 28 26 23 18 21 24 29 29 31 35 35 35 35 35 39 42 42 43 45 47 45 41 41 42 44 46 49 52 55 54 53 49
38 37 40 46 48 48 41 43 39 36 35 38 39 36 33 34 32 32 30 29 32 25 26 29 32 33 34 37 39 39 39 42 42 45 47 46 44 46 48 49 51 53 54 53 51 50 48 47 44
40 37 40 44 48 50 44 46 43 40 43 45 45 40 36 34 34 34 32 33 33 36 35 31 29 31 32 34 38 41 40 41 43 44 45 47 48 51 52 53 53 52 51 50 52 46 44 45 44
39 41 39 41 39 42 44 52 50 45 46 48 49 44 44 40 34 36 35 35 35 32 33 29 31 33 35 36 37 38 41 43 45 46 47 48 48 47 48 48 49 48 48 48 48 48 48 47 47
42 39 41 43 43 45 38 39 46 47 46 52 52 48 41 38 39 36 36 32 33 34 29 31 33 35 38 37 38 41 43 43 43 44 45 44 44 44 46 46 47 48 49 49 48 47 47 46 45
43 45 44 40 40 44 36 40 44 45 41 37 36 38 44 45 45 37 28 18 25 25 29 32 33 33 34 37 40 41 42 42 42 42 42 44 45 45 44 44 45 46 46 47 46 46 45 44 43
45 38 38 38 39 42 40 38 40 40 37 32 37 36 41 35 24 23 5 14 22 32 34 32 31 32 36 39 39 40 41 41 41 42 43 43 41 40 42 45 47 48 49 49 46 42 40 36 37
Wind_Direction
120 115 118 105 88 62 46 32 17 358 13 20 16 39 69 73 87 74 74 73 71 68 68 59 52 43 38 35 36 36 32 31 39 31 36 38 39 41 42 39 40 45 48 50 48 40 33 37 43
131 134 111 100 90 80 56 47 16 38 48 57 61 64 71 85 75 81 83 88 93 72 68 52 44 38 28 30 30 35 36 29 33 31 35 34 30 43 42 41 44 43 46 38 34 33 31 31 29
123 139 112 95 72 70 68 49 25 67 67 73 66 73 81 82 81 90 91 94 82 78 65 49 37 33 19 25 25 33 37 30 24 26 32 32 33 37 46 49 50 40 34 30 28 24 28 30 27
134 119 119 78 79 66 63 40 40 31 44 66 75 82 86 82 85 91 92 80 76 67 57 49 35 30 13 10 7 27 28 25 23 15 19 19 8 1 11 17 18 30 31 27 21 23 23 26 26
144 132 136 99 80 62 52 42 61 48 33 52 63 67 85 83 83 73 72 73 61 54 44 34 26 26 12 356 351 6 20 21 29 25 7 349 347 352 358 4 5 8 3 6 10 15 12 13 14
128 134 119 119 93 91 60 34 56 59 47 54 44 68 70 79 86 81 70 52 38 33 22 19 13 11 10 359 357 354 8 13 31 31 28 32 17 358 3 7 4 4 2 2 2 8 9 10 9
122 134 86 157 93 74 63 52 65 77 56 43 50 54 54 53 54 52 56 37 22 18 10 3 4 2 9 12 5 353 349 352 8 14 29 45 71 68 54 51 34 27 28 25 25 21 16 16 17
160 213 51 62 100 76 86 91 66 53 34 70 68 58 53 50 35 37 41 27 21 19 16 8 8 6 14 16 5 356 346 349 21 19 37 40 43 50 23 13 22 26 32 32 26 17 16 10 3
146 39 50 132 145 107 86 98 72 60 32 72 62 54 47 52 44 38 49 41 44 36 29 20 13 8 7 13 8 6 1 16 27 32 33 31 45 45 31 38 33 16 4 3 3 355 352 352 346
207 328 69 121 121 102 56 36 115 103 72 61 55 58 55 47 56 41 31 51 39 34 26 15 13 7 357 1 356 355 12 60 55 63 45 81 66 45 1 344 8 3 358 5 9 4 357 358 347
224 202 105 119 135 149 84 4 24 81 47 69 79 86 78 62 65 56 36 17 40 48 37 21 17 4 354 338 349 330 51 89 47 21 50 33 19 6 354 353 5 13 12 15 14 8 1 354 350
229 239 211 153 157 167 39 293 290 78 94 94 84 81 51 50 57 69 70 60 28 35 40 29 9 2 357 350 357 313 192 92 66 26 12 11 345 345 347 359 359 359 359 3 0 355 349 350 337
230 243 239 187 164 181 203 257 266 109 350 350 23 2 342 346 2 20 76 92 67 5 18 21 10 17 23 29 3 205 225 72 36 1 358 358 345 343 355 353 347 348 347 350 343 339 336 330 330
230 246 248 256 222 175 208 249 248 234 295 308 316 339 324 326 325 331 319 332 10 354 71 49 55 60 57 60 54 43 44 42 26 344 335 326 322 322 326 328 333 339 341 333 322 326 322 322 323
245 242 248 249 232 191 181 251 260 261 289 329 332 345 335 335 335 336 329 339 354 22 78 73 71 68 73 61 42 46 45 31 8 350 332 328 322 319 317 313 305 306 310 316 321 317 314 319 319
240 253 256 246 228 199 206 237 254 270 319 319 325 335 336 1 359 359 342 344 357 23 55 99 95 91 81 79 73 54 24 358 324 324 330 327 328 324 322 317 314 313 317 322 324 324 327 326 324
236 239 230 236 219 207 211 219 259 273 269 292 306 323 338 357 17 354 326 335 42 51 47 66 45 27 31 29 8 344 332 324 323 325 327 328 327 324 322 318 314 314 315 315 316 317 322 320 323
239 233 221 207 208 208 216 230 237 260 258 263 292 277 328 333 337 337 324 294 296 318 333 342 347 344 339 332 321 320 317 315 315 312 311 310 309 308 309 311 312 313 315 317 314 315 316 317 319
237 238 226 224 185 204 217 238 263 281 286 288 270 275 320 331 320 320 315 290 284 288 296 302 306 305 315 316 310 307 308 302 301 303 303 303 301 299 300 301 305 309 313 312 309 311 314 318 314
236 234 236 229 207 206 194 219 254 263 275 275 280 274 292 305 311 317 311 298 286 290 299 303 302 307 308 307 305 301 303 303 302 306 307 307 306 304 304 304 305 303 303 306 309 309 310 315 313
234 235 221 226 192 206 212 217 223 233 249 263 275 281 289 298 300 299 295 296 299 293 296 303 300 298 298 298 299 298 301 301 298 304 305 307 306 304 302 299 298 298 301 302 303 303 307 309 310
233 232 230 212 204 203 208 225 224 240 261 267 270 274 278 280 287 287 288 297 302 293 286 285 288 293 290 287 288 291 292 288 291 297 302 301 301 297 294 295 298 299 301 301 301 303 303 307 310
237 230 221 200 204 206 204 213 240 246 251 258 268 275 281 281 283 282 284 294 295 289 278 280 281 282 281 279 279 283 287 290 292 295 294 294 296 295 294 295 295 295 299 298 297 301 302 304 305
247 228 216 202 207 212 198 208 220 241 252 254 259 273 278 281 278 286 295 283 286 292 285 281 275 273 276 281 283 285 286 289 290 293 294 294 294 294 295 297 297 298 299 301 301 302 302 302 301
228 239 226 214 210 219 202 218 228 232 241 250 257 261 266 270 275 282 287 277 292 291 296 285 271 269 272 275 277 282 285 287 288 291 294 297 300 300 301 301 301 300 300 299 300 299 300 300 299
231 225 234 230 219 222 213 226 233 235 237 246 256 251 256 265 264 267 275 279 286 295 293 280 270 273 274 272 276 278 281 286 291 296 298 296 295 295 295 295 295 296 296 296 298 297 297 296 295
227 221 226 228 232 233 226 229 241 236 244 248 256 260 260 263 262 259 269 277 286 291 295 291 287 282 280 281 284 287 291 294 293 292 293 293 294 294 295 295 294 295 295 294 295 296 295 295 295
224 224 223 227 229 233 230 226 230 239 237 241 247 253 255 248 245 251 263 271 287 293 287 286 283 284 287 287 288 289 290 293 294 295 296 295 295 295 295 295 294 294 293 293 293 293 294 295 295
217 216 215 229 233 231 230 226 223 234 239 248 258 261 265 241 228 219 245 273 282 282 284 283 281 280 281 284 287 290 293 294 295 295 295 297 297 297 298 299 298 298 298 296 294 292 292 293 294
209 215 220 222 222 225 223 221 224 238 248 257 256 270 282 292 303 206 231 273 279 289 285 279 279 280 283 288 293 296 296 297 297 300 300 299 301 303 304 303 303 301 299 297 295 294 295 296 299
Height
5925 5925 5923 5923 5927 5924 5920 5921 5922 5920 5921 5920 5918 5917 5919 5918 5917 5919 5918 5918 5919 5919 5918 5918 5915 5916 5915 5914 5915 5914 5914 5913 5911 5911 5910 5908 5907 5906 5904 5903 5903 5902 5900 5898 5896 5895 5893 5891 5890
5925 5925 5923 5923 5925 5920 5921 5923 5922 5924 5926 5923 5922 5921 5920 5919 5919 5919 5920 5921 5922 5922 5920 5919 5917 5917 5917 5917 5917 5916 5915 5915 5914 5913 5912 5911 5909 5907 5907 5906 5905 5903 5901 5899 5898 5896 5895 5893 5891
5927 5926 5926 5927 5924 5922 5921 5923 5924 5927 5926 5925 5924 5923 5922 5921 5921 5922 5922 5923 5923 5922 5921 5920 5920 5919 5919 5919 5918 5918 5917 5917 5916 5914 5913 5913 5911 5910 5908 5907 5906 5904 5902 5900 5899 5898 5896 5894 5892
5927 5928 5928 5928 5925 5924 5923 5923 5929 5926 5927 5927 5927 5926 5925 5924 5923 5924 5924 5925 5925 5923 5923 5922 5922 5921 5921 5920 5919 5918 5918 5917 5917 5916 5915 5914 5913 5912 5910 5909 5907 5905 5903 5901 5900 5898 5897 5895 5893
5927 5929 5929 5928 5926 5925 5925 5926 5930 5929 5929 5928 5928 5929 5928 5926 5925 5926 5926 5926 5926 5925 5924 5924 5924 5923 5922 5922 5920 5920 5919 5919 5918 5917 5916 5915 5913 5912 5910 5909 5907 5905 5904 5902 5901 5899 5897 5895 5894
5928 5932 5931 5930 5928 5927 5926 5929 5931 5932 5931 5931 5931 5931 5931 5929 5927 5927 5927 5927 5927 5927 5927 5926 5926 5925 5923 5922 5921 5921 5920 5919 5918 5917 5916 5915 5914 5912 5910 5908 5907 5905 5904 5902 5901 5899 5898 5896 5894
5930 5935 5934 5930 5929 5927 5927 5930 5934 5936 5934 5934 5933 5933 5933 5931 5930 5929 5929 5928 5928 5928 5928 5928 5927 5926 5924 5923 5922 5921 5920 5920 5919 5918 5917 5915 5914 5912 5911 5909 5907 5905 5903 5902 5901 5899 5898 5896 5894
5930 5932 5932 5931 5932 5931 5931 5931 5935 5936 5937 5937 5935 5934 5934 5934 5931 5930 5930 5930 5930 5930 5930 5930 5928 5926 5924 5924 5923 5921 5921 5920 5919 5919 5918 5916 5915 5913 5911 5910 5908 5906 5904 5902 5901 5899 5897 5895 5894
5932 5932 5932 5933 5933 5933 5932 5932 5935 5937 5938 5936 5936 5936 5935 5936 5934 5932 5932 5931 5931 5931 5931 5930 5928 5927 5926 5925 5924 5922 5921 5920 5920 5919 5918 5917 5915 5913 5912 5910 5908 5906 5905 5903 5901 5899 5897 5895 5893
5930 5932 5930 5932 5933 5932 5933 5933 5935 5938 5938 5937 5937 5937 5937 5938 5938 5934 5933 5934 5933 5933 5932 5931 5929 5928 5927 5926 5924 5923 5922 5921 5920 5919 5918 5917 5915 5914 5913 5910 5908 5907 5905 5903 5901 5898 5896 5894 5892
5928 5933 5932 5932 5933 5933 5933 5933 5936 5938 5938 5939 5939 5939 5939 5937 5940 5938 5936 5933 5933 5933 5932 5931 5929 5928 5927 5926 5925 5923 5922 5920 5920 5919 5917 5917 5916 5915 5913 5912 5910 5908 5906 5903 5901 5899 5896 5893 5891
5928 5930 5932 5931 5933 5937 5935 5932 5936 5939 5938 5938 5939 5940 5939 5938 5938 5939 5938 5936 5931 5931 5931 5930 5928 5928 5926 5925 5925 5924 5922 5921 5921 5920 5918 5917 5916 5915 5914 5912 5910 5908 5906 5903 5900 5898 5896 5894 5891
5927 5926 5929 5928 5928 5934 5937 5934 5936 5939 5937 5938 5938 5939 5939 5939 5939 5938 5937 5936 5934 5932 5930 5929 5927 5927 5925 5925 5926 5925 5924 5922 5921 5921 5920 5918 5917 5916 5914 5913 5910 5908 5906 5904 5901 5898 5895 5893 5891
5924 5925 5926 5928 5930 5930 5935 5934 5935 5937 5937 5938 5937 5937 5937 5937 5937 5936 5935 5935 5934 5932 5931 5931 5928 5928 5926 5927 5928 5926 5923 5922 5921 5922 5921 5920 5919 5918 5915 5913 5910 5909 5906 5904 5901 5897 5895 5892 5889
5925 5925 5924 5926 5928 5930 5932 5928 5931 5934 5937 5937 5936 5936 5936 5935 5935 5934 5934 5932 5932 5931 5930 5930 5929 5928 5928 5927 5926 5923 5923 5922 5922 5922 5921 5919 5917 5915 5913 5912 5910 5908 5905 5903 5899 5896 5893 5890 5886
5922 5924 5925 5926 5926 5928 5928 5926 5928 5932 5934 5933 5933 5934 5935 5934 5933 5933 5933 5931 5930 5930 5930 5929 5928 5928 5927 5926 5927 5926 5925 5924 5923 5922 5919 5917 5915 5913 5911 5908 5906 5903 5901 5898 5896 5893 5889 5885 5881
5921 5922 5922 5923 5925 5925 5926 5927 5926 5928 5930 5931 5933 5933 5933 5932 5932 5932 5932 5931 5930 5929 5929 5928 5927 5926 5925 5925 5925 5924 5923 5921 5920 5918 5916 5914 5911 5909 5907 5905 5902 5900 5898 5894 5892 5889 5886 5882 5877
5918 5917 5919 5920 5924 5924 5924 5925 5925 5925 5927 5928 5929 5932 5931 5930 5930 5930 5931 5930 5930 5929 5928 5927 5926 5925 5924 5923 5922 5921 5919 5917 5915 5914 5912 5911 5909 5906 5903 5900 5896 5893 5891 5887 5884 5883 5880 5877 5873
5913 5914 5916 5917 5917 5919 5921 5920 5922 5920 5920 5924 5927 5929 5928 5928 5928 5927 5927 5928 5928 5927 5927 5926 5925 5924 5922 5921 5920 5918 5916 5914 5911 5909 5907 5906 5905 5902 5900 5897 5893 5888 5884 5881 5877 5875 5873 5870 5866
5906 5910 5914 5914 5914 5915 5916 5916 5917 5917 5916 5920 5923 5924 5925 5925 5927 5926 5925 5925 5924 5924 5924 5924 5923 5921 5919 5918 5917 5914 5912 5910 5907 5905 5902 5900 5898 5895 5892 5890 5886 5882 5878 5874 5870 5865 5864 5861 5857
5900 5903 5909 5912 5909 5909 5912 5912 5912 5914 5914 5915 5916 5919 5921 5922 5922 5924 5922 5921 5921 5921 5920 5920 5920 5918 5916 5914 5911 5909 5907 5905 5902 5899 5896 5893 5891 5887 5883 5880 5878 5874 5870 5867 5863 5859 5856 5853 5850
5893 5898 5903 5904 5904 5905 5907 5908 5906 5909 5910 5910 5910 5912 5916 5920 5919 5918 5918 5919 5921 5919 5917 5915 5914 5912 5911 5909 5907 5905 5902 5898 5895 5892 5890 5887 5885 5881 5875 5870 5867 5864 5861 5858 5854 5851 5846 5842 5839
5888 5891 5894 5897 5896 5898 5900 5902 5903 5904 5904 5905 5905 5907 5908 5910 5913 5913 5914 5916 5918 5915 5913 5911 5910 5907 5904 5902 5900 5898 5895 5894 5889 5886 5883 5880 5876 5873 5869 5863 5859 5855 5851 5848 5844 5841 5837 5833 5829
5879 5881 5883 5886 5888 5888 5894 5895 5897 5898 5903 5901 5903 5902 5902 5903 5906 5906 5909 5910 5911 5911 5908 5906 5904 5901 5898 5896 5892 5891 5888 5886 5882 5878 5874 5870 5865 5861 5857 5853 5850 5846 5842 5839 5834 5830 5826 5822 5818
5866 5873 5876 5878 5879 5880 5890 5888 5893 5897 5899 5898 5896 5899 5900 5901 5901 5902 5903 5904 5904 5904 5903 5901 5898 5896 5894 5891 5887 5884 5881 5878 5874 5870 5865 5860 5856 5851 5847 5842 5837 5833 5830 5826 5823 5819 5815 5812 5808
5860 5863 5867 5868 5874 5878 5884 5882 5887 5892 5890 5886 5887 5891 5895 5898 5898 5896 5896 5897 5896 5895 5894 5892 5890 5888 5887 5884 5880 5876 5872 5868 5864 5860 5856 5851 5846 5841 5837 5832 5827 5823 5819 5815 5811 5807 5804 5800 5797
5852 5851 5859 5861 5866 5869 5875 5879 5879 5882 5882 5880 5877 5885 5889 5890 5887 5884 5887 5890 5888 5887 5885 5884 5883 5880 5877 5874 5871 5867 5863 5859 5855 5851 5846 5841 5836 5831 5827 5822 5817 5813 5809 5804 5800 5796 5793 5789 5785
5838 5849 5848 5849 5854 5857 5864 5868 5868 5870 5872 5873 5875 5875 5876 5875 5875 5877 5880 5883 5882 5881 5879 5877 5874 5872 5869 5866 5863 5860 5856 5850 5846 5841 5836 5831 5826 5821 5817 5812 5807 5802 5798 5793 5789 5784 5780 5777 5773
5829 5832 5835 5843 5847 5850 5856 5859 5861 5861 5864 5867 5868 5867 5867 5855 5855 5863 5866 5874 5878 5877 5874 5871 5868 5865 5862 5859 5856 5852 5847 5842 5836 5831 5826 5822 5817 5812 5807 5802 5797 5791 5786 5782 5777 5773 5768 5765 5762
5818 5822 5828 5832 5838 5843 5848 5855 5855 5855 5857 5859 5861 5862 5862 5860 5847 5853 5861 5868 5872 5871 5868 5864 5862 5859 5855 5851 5848 5843 5838 5833 5827 5822 5817 5812 5807 5802 5796 5792 5786 5780 5774 5769 5764 5760 5757 5753 5750